Regional Weather Roundup
Issued by NWS Wakefield, VA

Home | Current Version | Previous Version | Graphics & Text | Print | Product List | Glossary On
Versions: 1 2 3 4 5 6 7 8 9 10 11 12 13 14 15 16 17 18 19 20 21 22 23 24 25 26 27 28 29 30 31 32 33 34 35 36 37 38 39 40 41 42 43 44 45 46 47 48 49 50
827
ASUS41 KAKQ 291715
RWRAKQ

REGIONAL WEATHER ROUNDUP
NATIONAL WEATHER SERVICE WAKEFIELD VA
100 PM EDT THU SEP 29 2016

Note: "fair" indicates few or no clouds below 12,000 feet with no
significant weather and/or obstructions to visibility. * = Denotes
station may not report precipitation (e.g., rain,snow,etc.),
thunder or fog.

VAZ042-051-052>054-056-291800-
NORTHERN VIRGINIA

CITY           SKY/WX    TMP DP  RH WIND       PRES   REMARKS
WASH NATIONAL  CLOUDY    70  68  93 E20G26    30.15S
DULLES         LGT RAIN  68  66  93 E10       30.14S FOG
FORT BELVOIR   CLOUDY    70  66  88 VRB5      30.13S
QUANTICO       CLOUDY    72  67  84 E14       30.13R
FREDERICKSBRG* CLOUDY    71  71 100 E7        30.11R
STAFFORD*      CLOUDY    70  68  95 E9        30.16R FOG
WARRENTON      CLOUDY    71  64  79 E12G18    30.12R
CULPEPER*      CLOUDY    72  69  92 E8G16     30.12R
MANASSAS*      LGT RAIN  70  70 100 E12G18    30.13S
LEESBURG*      CLOUDY    68  68 100 E8G18     30.15S FOG
WINCHESTER     LGT RAIN  68  66  94 E9G21       N/A
FRONT ROYAL*   CLOUDY    70  70 100 SE6       30.10S
LURAY*         CLOUDY    72  70  94 N6        30.09F
$$

VAZ048-049-060>072-079>083-291800-
CENTRAL AND SOUTH CENTRAL VIRGINIA

CITY           SKY/WX    TMP DP  RH WIND       PRES   REMARKS
RICHMOND       CLOUDY    74  69  85 E8        30.08S
CHESTERFIELD*  PTSUNNY   75  59  57 E6        30.09S
PETERSBURG*    CLOUDY    75  75  98 N6        30.08S
HANOVER        CLOUDY    74  69  85 E6        30.11S
TAPPAHANNOCK*  CLOUDY    75  72  91 E8        30.11S
QUINTON*       CLOUDY    75  71  87 NE3       30.09R
CHARLOTTSVILLE CLOUDY    75  70  84 SE7       30.09S
GORDONSVILLE*  CLOUDY    73  72  94 E6        30.09S
ORANGE*          N/A     73  72  94 NE8G16    30.11S
LOUISA*        CLOUDY    75  72  88 SE7       30.10R
BUMPASS*       CLOUDY    72  70  92 E8        30.10S
FARMVILLE*     CLOUDY    78  70  74 E7        30.06F HAZE
CREWE*         CLOUDY    74  74 100 CALM      30.08R
FORT PICKETT*  CLOUDY    73  69  88 CALM      30.08R
CHASE CITY*    PTSUNNY   73  69  86 SE3       30.07S
CLARKSVILLE*   PTSUNNY   73  68  83 E5        30.06S
SOUTH HILL*    CLOUDY    71  69  92 CALM      30.13S
LAWRENCEVILLE* CLOUDY    72  69  90 CALM      30.07S
EMPORIA*       LGT RAIN  73  70  88 CALM      30.08R
$$

VAZ088>098-291800-
SOUTHEAST VIRGINIA

CITY           SKY/WX    TMP DP  RH WIND       PRES   REMARKS
NORFOLK        CLOUDY    75  71  87 E16G24    30.08R
VIRGINIA BEACH CLOUDY    75  70  84 NE12      30.07R
NORFOLK NAVAL  CLOUDY    76  71  85 E16       30.09R
WEST POINT*    CLOUDY    77  69  76 E16G22    30.10R
SALUDA*        FAIR      75  71  88 E15G26    30.09R
NEWPORT NEWS   CLOUDY    77  71  82 E18G25    30.08R
LANGLEY AFB    PTSUNNY   77  72  84 E20       30.07S
FORT EUSTIS    CLOUDY    79  71  78 E8        30.04S
WILLIAMSBURG*  CLOUDY    79  72  78 E3        30.08R
HR EXEC AP*    FAIR      81  73  78 E8G16     30.09S
FRANKLIN*      CLOUDY    77  72  85 CALM      30.06S
US460-WAKEFLD  CLOUDY    76  72  87 VRB5      30.06S
$$

VAZ020-022-025-037-045-291800-
WEST CENTRAL AND SOUTHWEST VIRGINIA

CITY           SKY/WX    TMP DP  RH WIND       PRES   REMARKS
STAUNTON*      PTSUNNY   73  64  72 S9        30.11F
WAYNESBORO*    CLOUDY    70  64  82 SE9       30.11F
HOT SPRINGS VA LGT RAIN  51  51 100 E7        30.14S VSB<1/4
LYNCHBURG      CLOUDY    74  64  71 E7        30.09S
DANVILLE       MOSUNNY   76  65  68 VRB7      30.05F
SOUTH BOSTON*  PTSUNNY   77  67  71 SE5       30.06S
MARTINSVILLE   CLOUDY    71  64  76 E8        30.07S
ROANOKE        CLOUDY    70  64  81 E9        30.09F
BLACKSBURG     CLOUDY    67  63  87 E8G17     30.11S
DUBLIN*        CLOUDY    70  63  76 SE16      30.08S
MARION*        MOSUNNY   72  60  65 SE9G21    30.06F
HILLSVILLE*    CLOUDY    64  63  94 SE6G17    30.07R
RICHLANDS*     LGT RAIN  70  60  71 SE10G16   30.03S
WISE*          CLOUDY    59  46  63 NW5       30.06S
ABINGDON*      PTSUNNY   72  60  65 W3        30.00S
$$

MDZ021>025-VAZ099-100-291800-
SOUTHERN MARYLAND AND THE DELMARVA PENINSULA

CITY           SKY/WX    TMP DP  RH WIND       PRES   REMARKS
PATUXENT RIVER CLOUDY    73  66  78 E20G31    30.11S
BAY BRIDGE APT CLOUDY    68  66  94 MISG      30.16S FOG
LEONARDTOWN    CLOUDY    72  64  78 E10G23    30.14R
DOVER          LGT RAIN  66  66 100 E29G40    30.20R
GEORGETOWN     RAIN      67  32  27 E25G39    30.19S
EASTON         CLOUDY    72  64  78 E17G29    30.20S
CAMBRIDGE      CLOUDY    70  64  83 E18G30    30.13F
SALISBURY      LGT RAIN  68  67  96 E21G33    30.14S
OCEAN CITY     RAIN     N/A N/A N/A NE23G32   30.17S
WALLOPS ISLAND LGT RAIN  71  69  93 NE30G41   30.12F
ACCOMACK*      CLOUDY   N/A N/A N/A E24G37    30.11F
$$

NCZ012>017-030>032-291800-
NORTH CENTRAL AND EASTERN NORTH CAROLINA

CITY           SKY/WX    TMP DP  RH WIND       PRES   REMARKS
ROANOKE RAPIDS DRIZZLE   72  70  94 W8        30.06R
RALEIGH        PTSUNNY   76  68  76 E14G22    30.04F
ELIZABETH CITY LGT RAIN  77  73  87 E8        30.06S
AHOSKIE*       RAIN      72  72  98 E5        30.06F
EDENTON*       CLOUDY    79  78  96 E3        30.07R
CURRITUCK*     NOT AVBL
KILL DEVIL HLS CLOUDY    80  76  89 E5        30.05R
MANTEO         CLOUDY    80  74  83 E9        30.06S
CAPE HATTERAS  MOSUNNY   83  73  72 S5        30.04S
TARBORO*       LGT RAIN  73  72  97 E3        30.06R
GOLDSBORO      LGT RAIN  70  70 100 E6        30.02S
WASHINGTON     HVY RAIN  71  67  88 CALM      30.11R
GREENVILLE     RAIN      72  72 100 CALM      30.08S
NEW BERN       LGT RAIN  72  69  90 NW7       30.08R
WILMINGTON     CLOUDY    73  71  93 NE7       30.04F
$$

VAZ048-291800-
ELSEWHERE

CITY           SKY/WX    TMP DP  RH WIND       PRES   REMARKS
HARRISBURG PA  CLOUDY    62  60  93 E18       30.23F
BALTIMORE      LGT RAIN  67  64  90 E20G31    30.18R FOG
ANNAPOLIS      CLOUDY    70  66  87 E21G31    30.16S
ANDREWS AFB    CLOUDY    68  66  92 E9G17     30.16R
PHILADELPHIA   LGT RAIN  64  61  90 E22G29    30.29R
HENDERSON NC   SUNNY     72  64  76 E5        30.06F
GREENSBORO     PTSUNNY   73  66  78 SE12      30.02F
ROCKY MOUNT    PTSUNNY   71  71 100 CALM      30.05S
$$

VAZ100-291800-
MARINE

STATION/POSITION TIME  TEMP    WIND        PRES    WAVE   SWELL
                       AIR SEA DIR/SP/G            HT/PER HT/PER
                 (UTC) (F)     (DEG/KT/KT) (MB)    (FT/S) (FT/S)
BRANDYWINE LGT   1648   66      90/ 37/ 41   N/A
CAPE MAY NJ      1648   66 71   70/ 14/ 23 1023.2R
LEWES DE         1648   68 70   90/ 28/ 34 1022.8R
OCEAN-CITY-INLET 1648   67 72   70/ 14/ 25 1022.2F
WACHAPREAGUE VA  1648   72 75   50/ 21/ 33 1019.6F
THOMAS POINT MD  1700   69 73   90/ 26/ 29 1021.8S
GOOSES REEF MD   1650   72     110/ 23/ 29 1020.3F
COVE POINT MD    1648   71     120/ 22/ 29 1020.5F
SOLOMONS ISLAND  1648   72 74   80/ 24/ 30   N/A
BISHOPS HEAD MD  1648   72 72   80/ 21/ 29 1019.6F
PINEY POINT MD   1648          110/ 19/ 24   N/A
POTOMAC MD       1650   73      90/ 25/ 29 1018.2F
CAMBRIDGE MD     1648   71 72   70/ 22/ 28 1019.6F
LEWISETTA VA     1648   73 73  110/ 25/ 29 1018.7R
RAPPAHANNOCK LGT 1648           60/ 29/ 32 1019.2F
STINGRAY PT      1650   75      30/ 21/ 25 1018.8F
YORK RVR RNG VA  1648   75      90/ 21/ 25 1017.7F
YORKTOWN VA      1648   75 76   90/ 19/ 22 1018.2R
JAMESTOWN VA     1650   77      90/  8/ 12   N/A
DOMINION TERM VA 1648   75      80/ 16/ 22 1018.5R
KIPTOPEKE VA     1648      75   60/ 13/ 19   N/A
CHES BAY BRIDGE  1648   74 76   30/ 23/ 27 1018.1F
CAPE HENRY VA    1648   74      50/ 23/ 26   N/A
WILLOUBY STN VA  1648   74      80/ 18/ 20   N/A
CAPE HENRY BUOY  1642      76                N/A     5/ 8
1ST LANDING BUOY 1650   75      80/ 19/ 23 1018.2S
CAPE CHARLES BUO 1556      76                N/A     5/ 8   2/12
OFFSHORE WE BUOY 1551      75                N/A     6/ 7   2/11
64NM E OF VA BCH 1650   76 75   80/ 14/ 17 1017.4F   5/ 7   5/ 7
DUCK PIER NC     1648   76 77   60/ 13/ 15 1017.6R
44056 DUCK FRF   1641      77                N/A     4/ 7   2/11
OREGON INLET NC  1648   79 77   60/  9/ 12 1017.3F
HATTERAS NC      1648   83 78   CALM  /  4 1017.0S
DIAMOND SHLS NC  1650   80 83   20/  2/  4 1017.3R   4/ 7   3/ 7
CAPE LOOKOUT NC  1600   80      70/  6/  6 1016.9R
$$




USA.gov is the U.S. government's official web portal to all federal, state and local government web resources and services.